GSAT0205 (GALILEO 9) (40889 NORAD) Tracking and Keplerian Element Data

This shows tracking and keplerian element data for the satellite.

Feedback or suggestion? Click here.




ElementValue
Catalog40889
NameGSAT0205 (GALILEO 9)
Epoch Orbit2442
Epoch Day226.9740418
Epoch Year2019
RAAN290.5574
Inclination56.397
Eccentricity0.000161
Argument of Perigee338.7164
Mean Anonmoly21.366
Mean Motion1.70475479
Decay Rate-1.2E-07
L11 40889U 15045A 19226.97404180 -.00000012 00000-0 00000+0 0 9990
L22 40889 56.3970 290.5574 0001610 338.7164 21.3660 1.70475479 24427

Live tracking and technical data element details for GSAT0205 (GALILEO 9) (NORAD 40889). GSAT0205 (GALILEO 9) can be tracked NOW for your location showing map with azimuth and elevation plus other details from your city location.

Track the satellite on the map from your city or location and see movement details for azimuth, elevation, latitude, longitude, range, height, and movement on the map or in text.







IsCatalogInMostPopularTable: catalog: 40889, numindb: 291
Update: records affected: 1



GetName: 40889 GSAT0205 (GALILEO 9)

Hit Count: updated at: Wed, 21 Aug 2019 11:07:29 GMT